This is the latest recevied weather packets stored in our database for station/object N4WFF. If no packets are shown the sender has not sent any weather packets the latest 10 day(s).
| Time | Temp. | Humidity | Pressure | Rain* | Wind** | Luminosity | Snow |
|---|---|---|---|---|---|---|---|
| 1777683956 | 12.22° C | 95% | 1014 hPa | 1.52 mm | - | 0 W/m² | - |
| 1777683656 | 12.22° C | 95% | 1014.2 hPa | 1.52 mm | - | 0 W/m² | - |
| 1777683355 | 12.22° C | 95% | 1014 hPa | 0.76 mm | - | 0 W/m² | - |
| 1777683055 | 12.22° C | 94% | 1013.6 hPa | 2.54 mm | - | 0 W/m² | - |
| 1777682756 | 12.78° C | 94% | 1014 hPa | 4.57 mm | - | 0 W/m² | - |
| 1777682456 | 12.78° C | 94% | 1013.7 hPa | 2.29 mm | - | 0 W/m² | - |
| 1777682156 | 12.78° C | 94% | 1013.7 hPa | 3.3 mm | - | 0 W/m² | - |
| 1777681855 | 12.78° C | 94% | 1014 hPa | 2.29 mm | - | 0 W/m² | - |
| 1777681555 | 12.78° C | 93% | 1013.6 hPa | 3.81 mm | - | 0 W/m² | - |
| 1777681255 | 12.78° C | 94% | 1013.3 hPa | 6.1 mm | - | 1 W/m² | - |
| 1777680956 | 13.33° C | 94% | 1013.3 hPa | 5.33 mm | - | 1 W/m² | - |
| 1777680656 | 13.33° C | 94% | 1013.5 hPa | 6.86 mm | - | 2 W/m² | - |
| 1777680355 | 13.33° C | 94% | 1013.8 hPa | 3.05 mm | - | 2 W/m² | - |
| 1777680056 | 13.33° C | 93% | 1013.5 hPa | 2.29 mm | - | 3 W/m² | - |
| 1777679756 | 13.89° C | 93% | 1013.1 hPa | 5.59 mm | - | 5 W/m² | - |
| 1777679456 | 14.44° C | 94% | 1013.4 hPa | 8.64 mm | - | 6 W/m² | - |
| 1777679155 | 14.44° C | 93% | 1014.1 hPa | 3.05 mm | - | 3 W/m² | - |
| 1777678856 | 14.44° C | 93% | 1014 hPa | 3.3 mm | - | 5 W/m² | - |
| 1777678555 | 14.44° C | 92% | 1013.5 hPa | 7.11 mm | - | 11 W/m² | - |
| 1777678255 | 14.44° C | 92% | 1013.6 hPa | 10.41 mm | - | 6 W/m² | - |
| 1777677956 | 14.44° C | 92% | 1012.7 hPa | 2.79 mm | - | 8 W/m² | - |
| 1777677656 | 15° C | 93% | 1012 hPa | 1.27 mm | - | 12 W/m² | - |
| 1777677356 | 15° C | 93% | 1012 hPa | 0.25 mm | - | 22 W/m² | - |
| 1777677056 | 15.56° C | 94% | 1012 hPa | 0.25 mm | - | 26 W/m² | - |
| 1777676756 | 15.56° C | 94% | 1011.9 hPa | 3.56 mm | - | 33 W/m² | - |
* Rain latest hour (hover to see other rain measurements)
** Current wind speed in m/s (hover to see current wind gust speed)